Probability
0 0 3 3 0 0 0 0 0 0 0 3 3 3 3 6 13 26 23 74 58 45 42 42 55 61 52 52 55 58 65 71 71 74 77 68 65 68 77 77 71 61 58
0 0 0 0 0 0 0 0 0 0 0 0 3 0 0 3 3 16 16 32 55 48 55 45 48 52 52 61 55 52 74 74 74 74 74 71 68 71 74 74 74 58 45
0 0 0 0 3 0 0 0 0 0 0 3 3 0 3 6 3 10 13 16 16 35 45 52 42 52 58 58 48 61 77 74 71 77 71 74 74 74 74 74 65 61 55
0 0 0 0 0 3 3 0 0 0 0 0 6 6 3 3 6 10 10 10 3 3 23 29 39 45 55 52 48 58 61 74 74 87 81 74 81 81 77 77 71 68 52
0 0 0 0 0 3 3 0 0 0 0 0 0 3 6 3 10 3 0 0 6 6 0 6 19 35 52 55 45 52 55 71 81 84 84 77 74 77 81 77 74 71 65
0 0 0 0 0 0 0 3 0 3 0 0 0 0 0 0 0 0 0 0 0 3 3 0 0 6 42 55 48 45 65 65 68 77 84 74 71 74 77 77 77 74 71
0 0 0 0 0 0 0 0 0 0 0 0 0 0 0 0 0 0 0 0 0 0 0 3 3 3 6 29 39 61 65 71 52 65 74 77 71 65 68 81 77 77 77
0 0 0 0 0 0 0 3 0 3 0 0 0 0 0 0 0 3 3 3 0 0 0 3 3 3 0 0 10 32 48 55 58 48 61 71 74 71 68 68 71 77 74
0 0 0 0 0 0 0 3 0 3 3 0 0 0 0 0 0 0 0 0 0 3 0 3 3 3 6 3 0 3 19 32 55 48 45 61 61 65 74 74 71 68 81
0 0 0 0 0 0 0 0 3 3 3 3 0 0 0 0 0 0 0 0 0 0 0 0 0 0 0 3 0 0 6 6 35 55 52 55 65 65 55 74 77 77 77
0 0 0 0 0 0 0 0 0 0 6 0 0 0 0 0 0 0 0 0 0 0 0 3 0 0 0 3 3 0 0 0 13 48 61 58 58 58 58 61 71 77 77
0 0 0 0 0 0 0 0 0 0 3 0 0 0 0 0 0 0 0 0 0 0 0 0 0 0 0 0 3 0 0 0 0 23 29 55 58 48 48 42 55 65 71
0 0 0 0 0 0 0 0 0 0 0 3 0 0 0 0 0 0 0 0 0 0 0 0 3 0 0 0 0 0 0 0 0 3 6 10 26 35 32 29 35 35 52
0 0 0 0 0 0 0 0 3 3 3 0 3 0 0 0 0 0 0 0 0 0 0 0 0 0 0 0 0 0 0 0 0 0 3 3 0 3 23 26 35 39 42
0 0 0 0 0 0 3 3 3 3 3 3 6 3 0 0 0 0 0 0 0 0 0 0 0 0 0 0 0 0 0 0 0 0 0 0 0 0 3 13 13 16 13
0 0 0 0 0 0 0 0 3 3 3 3 3 3 3 0 0 0 0 0 0 0 0 0 0 0 0 0 0 0 0 0 0 0 0 0 0 0 0 0 3 3 3
0 0 0 0 0 0 0 0 0 3 3 3 3 0 3 0 0 0 0 0 3 3 0 0 0 0 0 0 0 0 0 0 0 0 0 0 0 0 0 0 0 0 0
0 0 0 0 0 0 0 0 0 0 0 0 0 0 0 3 3 0 0 0 0 0 0 0 0 0 0 0 0 0 0 0 0 0 0 0 0 0 0 0 0 0 0
0 0 0 0 0 0 0 0 0 0 0 0 0 0 0 0 3 0 0 0 0 0 0 0 0 0 0 0 0 0 0 0 0 0 0 0 0 0 0 0 0 0 0
0 0 0 0 0 0 0 0 0 0 0 0 0 0 0 0 0 0 0 0 0 0 0 0 0 0 0 0 0 0 0 0 0 0 0 0 0 0 0 0 0 0 0
0 0 0 0 0 0 0 0 0 0 0 0 0 0 0 0 0 0 0 0 0 0 0 0 0 0 0 0 0 0 0 0 0 0 0 0 0 0 0 0 0 0 0
0 0 0 0 0 0 0 0 0 0 0 0 0 0 0 0 0 0 0 0 0 0 0 0 0 0 0 0 0 0 0 0 0 0 0 0 0 0 0 0 0 0 0
0 0 0 0 0 0 0 0 0 0 0 0 0 0 0 0 0 0 0 0 0 0 0 0 0 0 0 0 0 0 0 0 0 0 0 0 0 0 0 0 0 0 0
0 0 0 0 0 0 0 0 0 0 0 0 0 0 0 0 0 0 0 0 0 0 0 0 0 0 0 0 0 0 0 0 0 0 0 0 0 0 0 0 0 0 0
0 0 0 0 0 0 0 0 0 0 0 0 0 0 0 0 0 0 0 0 0 0 0 0 0 0 0 0 0 0 0 0 0 0 0 0 0 0 0 0 0 0 0
0 0 0 0 0 0 0 0 0 0 0 0 0 0 0 0 0 0 0 0 0 0 0 0 0 0 0 0 0 0 0 0 0 0 0 0 0 0 0 0 0 0 0
Height
5846 5843 5840 5837 5835 5832 5830 5828 5826 5824 5823 5823 5822 5823 5823 5824 5826 5828 5831 5834 5837 5841 5844 5847 5851 5855 5858 5860 5863 5866 5868 5871 5874 5876 5878 5880 5882 5884 5886 5888 5890 5892 5894
5844 5841 5838 5835 5832 5830 5827 5825 5822 5820 5819 5818 5818 5818 5819 5820 5822 5824 5827 5830 5834 5837 5841 5844 5848 5852 5856 5859 5861 5864 5867 5870 5873 5876 5878 5880 5883 5885 5887 5889 5891 5893 5895
5842 5839 5836 5833 5830 5827 5824 5821 5818 5816 5815 5814 5814 5814 5815 5816 5818 5820 5823 5827 5831 5834 5838 5842 5846 5849 5853 5856 5860 5863 5866 5869 5872 5875 5877 5880 5882 5885 5887 5889 5891 5893 5896
5840 5837 5834 5831 5828 5824 5821 5818 5815 5813 5811 5810 5810 5810 5810 5812 5814 5816 5820 5823 5827 5831 5835 5839 5843 5847 5850 5854 5858 5861 5864 5867 5871 5874 5877 5879 5882 5884 5887 5889 5892 5894 5896
5839 5836 5833 5829 5825 5822 5818 5815 5812 5810 5808 5807 5806 5806 5807 5808 5810 5813 5816 5820 5824 5828 5832 5836 5840 5844 5848 5852 5855 5859 5862 5866 5869 5872 5875 5878 5881 5884 5886 5889 5891 5894 5896
5838 5835 5831 5828 5824 5820 5816 5813 5810 5807 5805 5804 5803 5803 5804 5805 5807 5809 5813 5816 5820 5825 5829 5833 5837 5841 5846 5849 5853 5857 5860 5864 5867 5871 5874 5877 5880 5883 5885 5888 5891 5893 5895
5837 5834 5830 5827 5823 5819 5815 5811 5808 5805 5803 5802 5801 5801 5801 5802 5804 5807 5810 5813 5818 5822 5826 5830 5834 5838 5843 5847 5851 5854 5858 5862 5865 5869 5872 5875 5878 5881 5884 5887 5890 5892 5894
5837 5833 5830 5826 5822 5818 5813 5809 5806 5804 5802 5800 5799 5799 5800 5801 5802 5804 5807 5811 5815 5819 5823 5827 5831 5836 5840 5844 5848 5852 5856 5859 5863 5866 5870 5873 5877 5880 5882 5885 5888 5891 5893
5836 5832 5829 5825 5821 5817 5813 5809 5805 5803 5800 5799 5798 5798 5798 5799 5800 5803 5806 5809 5812 5816 5820 5824 5828 5832 5837 5841 5845 5849 5853 5857 5860 5864 5867 5871 5874 5877 5880 5883 5886 5888 5891
5835 5832 5828 5825 5821 5817 5813 5809 5805 5802 5800 5799 5798 5797 5798 5798 5800 5802 5804 5807 5810 5814 5818 5821 5826 5830 5834 5838 5842 5846 5850 5854 5857 5861 5864 5868 5871 5875 5878 5881 5883 5886 5889
5835 5831 5828 5824 5821 5817 5813 5809 5806 5803 5800 5799 5798 5797 5798 5798 5799 5801 5803 5806 5808 5812 5815 5819 5823 5827 5831 5835 5839 5843 5847 5850 5854 5858 5861 5865 5868 5872 5875 5878 5881 5883 5886
5834 5831 5828 5824 5821 5817 5813 5810 5807 5804 5802 5800 5798 5798 5798 5798 5799 5800 5802 5804 5807 5810 5813 5817 5821 5824 5828 5831 5836 5840 5844 5847 5851 5854 5858 5861 5865 5868 5871 5874 5877 5880 5882
5833 5830 5827 5824 5821 5817 5814 5811 5808 5805 5803 5801 5800 5799 5798 5799 5799 5800 5801 5803 5805 5808 5811 5814 5818 5822 5825 5829 5833 5837 5841 5844 5848 5851 5855 5858 5862 5865 5868 5871 5873 5876 5878
5832 5829 5826 5823 5820 5817 5814 5811 5809 5806 5804 5802 5801 5800 5799 5799 5799 5800 5801 5802 5804 5806 5809 5812 5815 5819 5822 5826 5830 5834 5837 5841 5844 5848 5851 5854 5858 5861 5864 5867 5869 5872 5874
5831 5828 5825 5823 5820 5817 5815 5812 5809 5807 5805 5803 5802 5800 5799 5799 5799 5799 5800 5801 5803 5805 5808 5810 5813 5816 5819 5823 5826 5830 5834 5837 5840 5844 5847 5850 5853 5856 5859 5862 5865 5867 5869
5830 5827 5824 5822 5819 5816 5814 5812 5809 5807 5805 5803 5802 5801 5799 5799 5799 5799 5799 5800 5802 5804 5806 5808 5810 5813 5816 5819 5823 5826 5830 5833 5836 5839 5842 5845 5848 5851 5854 5857 5860 5862 5864
5828 5826 5823 5820 5818 5815 5813 5811 5809 5807 5805 5803 5802 5800 5799 5799 5798 5798 5799 5799 5800 5802 5803 5805 5808 5810 5813 5816 5819 5822 5825 5828 5832 5835 5837 5840 5843 5846 5849 5851 5854 5856 5859
5826 5823 5821 5818 5815 5813 5811 5809 5807 5805 5804 5802 5801 5800 5799 5798 5797 5797 5797 5798 5799 5800 5801 5803 5805 5807 5809 5812 5815 5818 5820 5823 5826 5829 5832 5834 5837 5840 5843 5845 5848 5850 5852
5824 5821 5818 5816 5813 5811 5809 5807 5805 5804 5802 5801 5799 5798 5797 5797 5796 5796 5795 5796 5796 5797 5799 5800 5802 5803 5806 5808 5810 5813 5815 5818 5820 5823 5825 5828 5831 5833 5836 5838 5841 5843 5845
5820 5818 5815 5812 5810 5808 5806 5804 5803 5801 5800 5798 5797 5796 5795 5794 5794 5793 5793 5793 5794 5794 5796 5797 5798 5800 5802 5804 5806 5808 5810 5812 5815 5817 5819 5822 5824 5827 5829 5831 5834 5836 5838
5816 5813 5810 5808 5806 5804 5802 5800 5799 5797 5796 5795 5794 5793 5792 5791 5791 5790 5790 5790 5790 5791 5792 5793 5794 5795 5797 5799 5801 5802 5804 5806 5808 5811 5813 5815 5818 5820 5822 5824 5826 5828 5831
5812 5808 5805 5803 5800 5798 5797 5795 5794 5793 5792 5791 5790 5789 5788 5788 5787 5786 5786 5786 5786 5787 5788 5788 5789 5791 5792 5794 5795 5797 5798 5800 5802 5804 5806 5808 5810 5813 5815 5817 5818 5821 5823
5807 5803 5800 5797 5794 5792 5790 5789 5787 5786 5786 5785 5784 5784 5783 5783 5782 5781 5781 5781 5781 5781 5782 5783 5784 5785 5787 5788 5789 5791 5792 5794 5796 5797 5799 5801 5803 5805 5807 5809 5811 5813 5815
5801 5797 5793 5790 5787 5785 5782 5781 5779 5778 5778 5778 5777 5777 5776 5776 5776 5775 5775 5775 5775 5775 5776 5777 5778 5779 5780 5781 5783 5784 5785 5787 5789 5790 5792 5794 5796 5798 5800 5802 5803 5805 5807
5793 5789 5785 5781 5778 5775 5773 5771 5770 5769 5769 5769 5768 5768 5768 5768 5767 5767 5768 5768 5768 5768 5768 5769 5770 5771 5773 5774 5775 5777 5779 5780 5782 5783 5785 5787 5789 5791 5792 5794 5796 5798 5799
5784 5779 5775 5771 5768 5765 5762 5760 5758 5758 5758 5759 5759 5758 5758 5758 5758 5758 5758 5759 5759 5760 5760 5761 5762 5763 5765 5766 5767 5769 5771 5772 5774 5776 5777 5779 5781 5783 5785 5786 5788 5789 5791
Wind_Speed
19 19 19 18 18 17 17 17 17 17 17 16 16 15 16 17 18 20 21 22 22 21 21 21 20 19 17 16 17 16 15 14 14 14 13 12 12 11 11 11 11 11 11
20 20 19 18 18 17 18 18 18 17 16 16 15 15 15 17 18 20 21 23 23 22 22 22 21 20 18 17 17 17 16 15 16 14 13 13 13 12 11 10 11 11 11
20 20 19 19 18 18 19 19 18 16 15 15 14 15 15 15 17 19 21 23 23 23 22 22 22 21 20 19 19 18 17 16 16 16 14 14 13 13 12 11 11 11 11
20 20 20 20 19 19 19 19 18 16 14 14 13 13 14 15 16 18 20 23 23 23 22 23 23 22 21 20 19 19 18 17 17 17 16 15 14 14 13 12 11 11 11
20 20 20 21 21 20 19 18 17 16 14 13 12 11 12 14 15 17 20 22 23 22 22 22 23 23 22 20 20 20 19 19 18 18 17 16 16 15 14 13 12 11 11
20 21 21 22 21 21 20 18 17 15 14 12 11 10 10 12 14 16 19 21 22 22 22 23 23 23 24 21 20 20 20 21 20 19 19 18 18 16 15 14 12 12 11
20 21 22 22 22 21 21 19 16 15 13 11 9 9 8 10 12 14 17 19 21 22 22 22 23 23 24 22 21 20 21 21 21 21 20 20 19 18 17 15 13 12 12
19 20 22 22 22 22 21 19 17 14 13 11 8 7 7 8 10 12 15 17 19 21 22 22 23 23 24 23 22 21 21 21 22 22 21 21 20 20 18 17 15 14 13
20 21 22 22 21 22 21 20 17 14 12 10 8 6 6 7 9 11 13 15 17 20 21 22 23 23 23 23 23 23 22 22 23 23 23 22 21 20 19 18 17 16 15
20 21 22 22 22 22 22 20 18 15 12 9 7 5 4 5 7 9 12 14 16 19 20 21 22 22 22 23 23 22 22 22 24 24 23 23 23 21 20 20 19 18 17
19 20 21 21 21 22 21 20 18 15 12 9 7 5 4 4 6 8 11 13 16 18 19 20 21 21 21 23 23 22 22 22 24 24 23 23 23 23 21 21 20 19 19
19 20 21 21 21 21 21 20 18 16 13 10 8 5 3 3 4 6 9 12 14 17 18 20 20 21 22 22 23 22 22 22 23 24 24 23 23 23 23 22 22 20 20
19 19 20 20 20 20 20 19 18 16 14 11 9 7 5 3 3 5 7 10 12 15 17 19 20 20 22 23 23 23 23 22 23 23 24 24 24 24 23 23 22 22 21
20 20 20 20 20 19 19 18 17 16 14 13 11 8 6 4 3 4 6 9 11 13 16 17 19 20 21 22 24 24 23 22 22 23 24 24 24 24 24 23 23 22 22
20 20 20 20 20 19 18 18 17 16 14 12 11 9 7 5 4 5 7 8 10 12 14 16 18 20 21 22 23 24 24 23 23 23 24 24 24 24 25 24 24 23 23
21 21 21 20 20 19 18 17 16 16 15 13 11 10 8 6 5 5 6 8 10 12 13 15 16 18 20 21 22 23 24 23 23 23 24 25 25 25 25 25 25 25 24
21 21 21 21 21 20 19 18 16 15 14 13 12 11 9 8 6 6 7 8 9 11 13 14 15 18 19 21 22 23 23 24 24 24 24 25 26 26 26 26 26 26 26
22 22 22 22 21 21 20 19 18 16 15 14 13 12 10 9 8 8 8 9 10 11 12 14 15 17 19 21 22 23 23 25 25 25 26 26 27 28 28 27 28 28 27
24 23 23 23 22 21 21 20 19 17 16 15 14 13 11 11 10 9 9 10 10 12 13 14 15 17 18 20 21 23 23 24 26 26 27 27 27 28 29 29 29 29 29
25 25 25 25 24 22 22 21 20 19 18 17 16 15 13 13 12 12 12 12 12 12 13 14 16 17 19 21 22 23 24 24 26 26 27 27 28 28 29 29 29 29 29
26 27 27 26 26 24 23 23 22 21 20 19 18 17 16 15 14 14 13 13 14 14 14 15 17 18 19 21 21 23 24 25 26 27 27 28 28 28 28 29 29 29 29
28 28 28 28 27 26 25 25 24 24 22 21 20 19 19 18 17 17 16 16 16 17 17 18 18 19 20 21 22 22 24 25 26 27 27 28 28 28 28 28 29 29 30
29 29 30 30 30 29 27 26 26 26 25 24 23 22 21 20 20 20 20 19 19 19 20 20 20 21 21 22 22 23 24 25 25 26 27 27 27 27 28 27 27 28 29
31 32 32 32 32 32 31 29 29 28 28 28 27 26 25 24 23 23 23 23 22 22 22 22 23 23 22 23 23 24 24 25 25 26 26 27 27 27 27 27 28 28 28
33 34 34 35 34 33 33 32 32 31 31 31 31 30 29 28 27 26 26 25 25 25 25 25 25 25 25 25 25 25 26 26 26 27 27 27 27 27 27 27 28 28 28
36 37 37 37 36 36 35 35 35 34 34 33 33 33 33 31 31 30 30 29 28 28 28 27 27 27 27 27 27 27 27 27 27 27 27 27 28 28 28 28 28 28 28
Wind_Direction
333 332 330 328 325 322 319 316 310 304 297 290 282 274 265 253 245 238 232 228 227 226 224 223 221 219 217 214 207 203 200 198 193 186 179 176 168 163 159 155 156 155 154
336 335 334 332 329 325 321 319 315 308 300 291 283 274 265 254 245 237 230 226 224 225 225 222 220 219 216 213 208 205 202 201 196 192 186 180 177 174 169 164 161 160 158
340 339 338 336 332 329 325 322 318 312 305 297 286 274 263 254 245 237 229 225 223 224 224 222 219 216 216 214 210 206 205 200 199 197 194 185 181 179 176 171 169 168 166
344 343 343 340 336 332 330 327 323 316 310 302 290 275 262 251 242 233 229 224 221 222 223 220 218 215 214 215 212 210 207 204 201 199 197 192 187 183 181 179 177 176 174
349 348 347 345 342 338 335 331 327 321 314 306 293 279 263 249 240 231 227 222 220 220 220 219 216 214 213 215 214 209 209 206 203 201 200 198 193 190 188 185 184 183 184
350 351 351 349 347 345 342 337 331 325 319 311 298 283 265 249 238 230 224 219 219 219 219 217 216 215 214 215 214 211 210 209 208 206 205 203 200 197 196 193 191 191 192
351 353 352 352 351 350 347 342 337 330 326 318 304 287 269 251 238 229 222 218 218 217 217 218 215 216 216 216 215 211 210 210 210 210 208 206 205 203 201 200 200 199 199
352 353 353 353 353 353 350 347 342 337 331 325 312 291 273 253 237 226 219 218 217 216 217 216 215 214 215 217 217 212 211 210 212 211 209 207 208 208 207 207 207 208 208
351 353 354 355 356 356 354 351 348 345 340 333 321 303 279 255 235 222 218 217 215 214 216 216 214 215 215 215 214 213 214 212 213 212 211 212 212 211 212 212 213 214 218
352 354 355 356 358 359 359 357 355 353 351 344 334 317 290 258 231 223 220 219 215 213 215 214 214 215 214 211 210 214 217 217 216 213 215 215 214 215 216 217 218 220 224
351 353 355 357 358 360 2 2 1 360 357 355 350 335 305 268 239 228 224 222 219 217 214 214 213 212 213 213 212 214 217 217 215 216 218 217 217 218 219 220 222 225 227
350 352 355 358 359 0 2 4 3 4 4 3 1 352 320 280 249 236 227 222 221 220 218 216 215 215 214 214 213 215 217 215 215 215 216 217 218 220 221 224 226 230 230
349 350 353 356 358 360 2 4 5 2 4 6 5 1 349 309 266 247 230 221 220 218 218 219 219 218 217 216 215 218 218 218 218 217 219 220 223 223 225 227 229 232 233
349 348 350 353 355 357 359 1 3 3 2 4 1 354 343 322 287 251 234 228 223 220 220 222 221 221 218 219 219 220 221 222 222 222 223 224 226 227 228 230 232 234 235
348 348 348 349 350 351 354 356 358 359 357 357 356 351 340 325 299 264 251 239 229 227 227 226 224 223 222 222 222 222 224 226 225 226 226 227 228 230 231 233 234 236 238
348 347 346 345 346 348 347 348 351 354 354 352 351 348 341 327 309 285 264 250 237 233 231 231 228 226 225 226 226 224 226 229 228 229 229 230 232 232 234 236 237 239 241
347 346 345 343 342 343 344 344 343 345 348 348 345 342 335 324 308 289 273 255 245 235 231 231 231 229 229 229 228 228 229 230 230 233 233 234 234 235 237 240 240 241 243
345 344 343 341 339 338 338 339 338 337 337 337 336 333 327 320 307 291 275 260 249 241 235 233 235 235 231 230 231 232 233 234 235 235 236 237 237 238 240 242 243 244 245
341 340 339 337 336 334 333 331 332 332 330 328 327 324 318 312 302 292 282 267 256 245 240 238 239 237 234 235 237 236 237 237 237 239 239 240 241 241 242 244 245 247 247
336 335 334 332 331 329 327 326 324 324 323 320 319 316 313 306 298 291 282 272 261 250 244 243 242 241 239 239 240 240 239 238 239 240 240 243 243 243 244 245 246 247 247
332 331 329 327 325 322 320 319 318 316 315 314 311 308 305 302 296 290 283 275 266 258 251 248 247 244 243 243 243 242 242 241 241 243 244 244 244 244 246 247 247 247 248
329 328 326 324 322 318 315 314 312 311 309 306 305 301 298 295 291 288 284 278 271 262 257 253 251 247 245 246 245 245 244 243 243 243 244 244 244 245 246 247 248 248 249
326 324 322 320 318 315 311 308 307 306 304 302 300 297 294 291 287 284 281 276 271 267 262 258 256 252 250 246 246 246 246 245 244 243 243 244 244 245 245 246 248 249 249
321 320 318 316 313 311 307 303 301 301 300 298 296 293 291 287 284 281 277 274 271 268 265 261 259 257 255 251 248 247 247 246 244 244 243 244 244 245 245 247 249 251 252
319 317 315 313 311 308 304 299 296 295 294 293 291 289 287 284 281 278 275 272 269 266 264 261 260 257 254 253 252 250 249 249 248 247 246 247 246 245 246 248 249 250 252
316 315 314 312 309 306 301 295 293 291 289 288 287 285 283 281 279 276 273 271 268 265 263 261 259 259 256 254 253 251 250 250 249 249 249 248 248 247 247 249 250 251 252